This is the latest recevied weather packets stored in our database for station/object JL1CBB-13. If no packets are shown the sender has not sent any weather packets the latest 1 day(s).
| Time | Temp. | Humidity | Pressure | Rain* | Wind** | Luminosity | Snow |
|---|---|---|---|---|---|---|---|
| 1778051515 | 20.56° C | 71% | 1021 hPa | 0 mm | 1.34 m/s, 163° | - | - |
| 1778050915 | 21.11° C | 69% | 1021 hPa | 0 mm | 1.34 m/s, 204° | - | - |
| 1778050315 | 21.11° C | 69% | 1021 hPa | 0 mm | 1.34 m/s, 170° | - | - |
| 1778049715 | 21.67° C | 68% | 1021 hPa | 0 mm | 1.34 m/s, 180° | - | - |
| 1778049115 | 21.67° C | 67% | 1021 hPa | 0 mm | 1.34 m/s, 194° | - | - |
| 1778048514 | 22.22° C | 66% | 1021 hPa | 0 mm | 0.89 m/s, 150° | - | - |
| 1778047914 | 22.22° C | 66% | 1021 hPa | 0 mm | 1.34 m/s, 166° | - | - |
| 1778047314 | 22.78° C | 66% | 1021 hPa | 0 mm | 0.45 m/s, 152° | - | - |
| 1778046714 | 22.22° C | 66% | 1021 hPa | 0 mm | 1.34 m/s, 220° | - | - |
| 1778046114 | 22.22° C | 66% | 1020 hPa | 0 mm | 1.34 m/s, 193° | - | - |
| 1778045522 | 22.22° C | 66% | 1020 hPa | 0 mm | 1.34 m/s, 270° | - | - |
| 1778044914 | 22.22° C | 66% | 1021 hPa | 0 mm | 1.34 m/s, 170° | - | - |
| 1778044314 | 21.67° C | 66% | 1022 hPa | 0 mm | 0.45 m/s, 209° | - | - |
| 1778043714 | 21.67° C | 66% | 1022 hPa | 0 mm | 2.24 m/s, 205° | - | - |
| 1778043115 | 22.22° C | 65% | 1022 hPa | 0 mm | 1.34 m/s, 191° | - | - |
| 1778042516 | 22.78° C | 64% | 1022 hPa | 0 mm | 1.34 m/s, 217° | - | - |
| 1778041915 | 22.78° C | 64% | 1022 hPa | 0 mm | 2.24 m/s, 234° | - | - |
| 1778041315 | 22.78° C | 64% | 1022 hPa | 0 mm | 2.24 m/s, 140° | - | - |
| 1778040715 | 22.78° C | 64% | 1022 hPa | 0 mm | 1.34 m/s, 257° | - | - |
| 1778040115 | 22.78° C | 64% | 1022 hPa | 0 mm | 1.34 m/s, 172° | - | - |
| 1778039515 | 22.78° C | 63% | 1023 hPa | 0 mm | 2.24 m/s, 197° | - | - |
| 1778038915 | 23.33° C | 62% | 1023 hPa | 0 mm | 2.24 m/s, 184° | - | - |
| 1778038315 | 23.89° C | 62% | 1023 hPa | 0 mm | 1.34 m/s, 94° | - | - |
| 1778037715 | 23.89° C | 61% | 1023 hPa | 0 mm | 0.89 m/s, 196° | - | - |
| 1778037115 | 23.33° C | 62% | 1022 hPa | 0 mm | 1.34 m/s, 194° | - | - |
* Rain latest hour (hover to see other rain measurements)
** Current wind speed in m/s (hover to see current wind gust speed)